[[{"header":{"parameterUnit":"m.s-1","parameterCategory":1,"la1":30.2991,"la2":30.254,"lo1":-89.0895,"lo2":-89.0444,"dy":0.0017,"dx":0.0017,"nx":28,"ny":28,"refTime":"2025-09-12T09:00:00:Z","depth":0,"parameterNumber":2,"parameterNumberName":"U-component_of_WINDS"},"data":[0,0,0,0,0,0,0,0,0,0,0,0,0,0,0,0,0,0,0,0,0,0,0,0,0,0,0,0,0,0,0,0,0,0,0,0,0,0,0,0,0,0,0,0,0,0,0,0,0,0,0,0,0,0,0,0,0,0,-1.1718,-1.1717,0,-1.1632,-1.1631,-1.163,-1.1538,-1.1537,-1.1535,-1.1534,-1.1446,-1.1445,-1.1444,0,0,0,0,0,0,0,0,0,0,0,0,0,-1.1805,-1.1804,-1.1718,-1.1717,-1.1716,-1.1632,-1.1631,-1.1629,-1.1538,-1.1537,-1.1535,-1.1534,-1.1447,-1.1445,-1.1444,0,0,0,0,0,0,0,0,0,0,0,0,0,-1.1748,-1.1803,-1.1718,-1.166,-1.1654,-1.1632,-1.163,-1.1629,-1.1538,-1.1537,-1.1535,-1.1533,-1.1447,-1.1446,-1.1444,-1.1472,0,0,-1.1439,-1.1438,0,0,0,0,0,0,0,0,-1.1751,-1.1745,-1.167,-1.1664,-1.1657,-1.1593,-1.1629,-1.1577,-1.1539,-1.1582,-1.1534,-1.1532,-1.1497,-1.1491,-1.1479,-1.1468,-1.1464,-1.1439,-1.1438,-1.1437,-1.1436,0,0,0,0,0,0,0,-1.1755,-1.1748,-1.1684,-1.1669,-1.1661,-1.1639,-1.1629,-1.1619,-1.1552,-1.1578,-1.1572,-1.1563,-1.1493,-1.1481,-1.1476,-1.1463,-1.1439,-1.1437,-1.1436,-1.1435,-1.1473,-1.1475,0,0,0,0,0,0,-1.1768,-1.1752,-1.1686,-1.1681,-1.17,-1.1639,-1.1627,-1.1616,-1.1551,-1.154,-1.1564,-1.1559,-1.1485,-1.1479,-1.1473,-1.1503,-1.1437,-1.1435,-1.1434,-1.1471,-1.1474,-1.1476,0,0,0,0,0,0,-1.177,-1.1763,-1.169,-1.1715,-1.1704,-1.1639,-1.1627,-1.1615,-1.1603,-1.1541,-1.1528,-1.1564,-1.1483,-1.1475,-1.1474,-1.1499,-1.1435,-1.1433,-1.1469,-1.1472,-1.1475,-1.1563,0,0,0,0,0,0,-1.1773,-1.1764,-1.1774,-1.1715,-1.1703,-1.1692,-1.1629,-1.1615,-1.16,-1.1592,-1.1537,-1.1526,-1.1481,-1.1477,-1.1472,-1.1495,-1.1432,-1.1466,-1.147,-1.1474,-1.1558,-1.1569,-1.1579,0,0,0,0,0,-1.1776,-1.1802,-1.1775,-1.1767,-1.1713,-1.1693,-1.1686,-1.1633,-1.1603,-1.1612,-1.1573,-1.1528,-1.1497,-1.1477,-1.1471,-1.1494,-1.1464,-1.1469,-1.1473,-1.1553,-1.1567,-1.1578,0,0,0,0,0,0,-1.1865,-1.1793,-1.1762,-1.177,-1.1738,-1.1678,-1.1688,-1.1649,-1.1625,-1.1619,-1.1554,-1.1542,-1.1549,-1.1521,-1.15,-1.152,-1.1474,-1.1478,-1.1537,-1.155,-1.156,-1.1566,-1.143,0,0,0,0,0,-1.1885,-1.1874,-1.1812,-1.1825,-1.1811,-1.1753,-1.1742,-1.1704,-1.1669,-1.1655,-1.1615,-1.1583,-1.1566,-1.1556,-1.1537,-1.1554,-1.1541,-1.1567,-1.1577,-1.1586,-1.159,-1.1598,-1.1609,-1.1491,-1.1491,-1.1491,0,0,-1.1927,-1.1886,-1.1884,-1.1842,-1.1813,-1.1804,-1.1742,-1.1735,-1.1728,-1.1654,-1.165,-1.162,-1.158,-1.1588,-1.159,-1.1565,-1.162,-1.1592,-1.1599,-1.1598,-1.1604,-1.1616,-1.1626,-1.1494,-1.1493,-1.1493,0,0,-1.1999,-1.1967,-1.1974,-1.1947,-1.1905,-1.1866,-1.1868,-1.1814,-1.1791,-1.1786,-1.1731,-1.1722,-1.1694,-1.1668,-1.1652,-1.1716,-1.1675,-1.1712,-1.1766,-1.1775,-1.1784,-1.1792,-1.1817,-1.1826,-1.1716,-1.1716,-1.1716,0,-1.2056,-1.204,-1.1983,-1.198,-1.1964,-1.1897,-1.1905,-1.1881,-1.1835,-1.1826,-1.1799,-1.1764,-1.1732,-1.1734,-1.175,-1.1738,-1.1739,-1.1718,-1.1787,-1.1795,-1.1802,-1.1824,-1.1833,-1.1721,-1.172,-1.172,-1.1719,0,-1.2113,-1.2103,-1.2115,-1.2072,-1.2057,-1.206,-1.2004,-1.1996,-1.196,-1.1925,-1.1922,-1.1881,-1.1854,-1.1851,-1.1816,-1.1849,-1.1835,-1.1799,-1.1753,-1.1819,-1.1839,-1.1847,-1.1728,-1.1726,-1.1725,-1.1723,0,0,-1.2237,-1.2165,-1.217,-1.215,-1.2099,-1.2091,-1.2091,-1.2064,-1.2059,-1.203,-1.2029,-1.2008,-1.1974,-1.1956,-1.1917,-1.1925,-1.198,-1.1887,-1.1886,-1.1907,-1.2016,-1.2044,-1.2055,-1.1953,-1.1954,-1.1955,-1.202,0,-1.2301,-1.2297,-1.2246,-1.2257,-1.2248,-1.2185,-1.2185,-1.2155,-1.2122,-1.211,-1.2074,-1.206,-1.2017,-1.2005,-1.201,-1.1973,-1.2002,-1.1967,-1.1952,-1.1953,-1.1965,-1.2065,-1.2094,-1.2157,-1.2027,-1.2029,-1.203,0,-1.2374,-1.235,-1.236,-1.231,-1.2304,-1.2306,-1.2278,-1.2267,-1.2232,-1.2207,-1.2188,-1.2144,-1.2142,-1.2098,-1.2095,-1.2073,-1.2064,-1.2045,-1.2046,-1.2043,-1.1996,-1.2066,-1.2176,-1.2186,-1.2041,-1.204,-1.2039,0,-1.2465,-1.2435,-1.2437,-1.2422,-1.2364,-1.2367,-1.2343,-1.2306,-1.2293,-1.2269,-1.2261,-1.2237,-1.2225,-1.2208,-1.216,-1.2132,-1.2163,-1.2114,-1.2143,-1.2145,-1.2153,-1.2153,-1.2264,-1.2146,-1.2146,-1.2146,-1.2146,0,-1.2541,-1.255,-1.2477,-1.2479,-1.2488,-1.243,-1.244,-1.241,-1.2378,-1.2374,-1.2318,-1.2315,-1.2251,-1.2241,-1.2203,-1.2208,-1.2202,-1.2183,-1.2173,-1.2188,-1.2191,-1.2182,-1.2177,-1.2148,-1.2148,-1.2147,-1.2147,0,-1.2644,-1.2596,-1.2594,-1.254,-1.2527,-1.2536,-1.2489,-1.2489,-1.2454,-1.2449,-1.2444,-1.2389,-1.2375,-1.2325,-1.2298,-1.2273,-1.2289,-1.2269,-1.2301,-1.2295,-1.2327,-1.2325,-1.2437,-1.2449,-1.2323,-1.2325,-1.2326,0,-1.2696,-1.2702,-1.2649,-1.2642,-1.262,-1.2609,-1.2597,-1.2541,-1.2531,-1.2492,-1.2497,-1.2478,-1.2461,-1.2441,-1.2399,-1.2379,-1.2358,-1.2399,-1.2355,-1.2371,-1.236,-1.2361,-1.2362,-1.2409,-1.241,-1.2412,-1.2413,0,-1.2795,-1.2771,-1.2755,-1.2731,-1.2718,-1.2697,-1.2672,-1.267,-1.2608,-1.2599,-1.2584,-1.2571,-1.2544,-1.2527,-1.25,-1.2476,-1.2435,-1.2427,-1.2433,-1.2449,-1.2468,-1.2459,-1.2328,-1.2425,-1.2423,-1.2423,-1.2422,-1.2421,-1.2874,-1.2877,-1.284,-1.2825,-1.2801,-1.278,-1.2777,-1.2742,-1.2728,-1.2703,-1.2671,-1.266,-1.2626,-1.2586,-1.2566,-1.2557,-1.2534,-1.2543,-1.2545,-1.2548,-1.2556,-1.2469,-1.2552,-1.2552,-1.2551,-1.2551,-1.2551,0,-1.2971,-1.2944,-1.2931,-1.2899,-1.2887,-1.2849,-1.2821,-1.2814,-1.2805,-1.2777,-1.2761,-1.2745,-1.2728,-1.2686,-1.2665,-1.2667,-1.2648,-1.2664,-1.2663,-1.2659,-1.2577,-1.2574,-1.268,-1.268,-1.268,-1.268,-1.268,-1.268,-1.3019,-1.3022,-1.2995,-1.2986,-1.2959,-1.2948,-1.2936,-1.2916,-1.2894,-1.2878,-1.2864,-1.2837,-1.2803,-1.278,-1.2764,-1.2752,-1.2748,-1.277,-1.2752,-1.2677,-1.2664,-1.2653,-1.265,-1.277,-1.277,-1.2835,-1.2836,-1.2836]},{"header":{"parameterUnit":"m.s-1","parameterCategory":1,"la1":30.2991,"la2":30.254,"lo1":-89.0895,"lo2":-89.0444,"dy":0.0017,"dx":0.0017,"nx":28,"ny":28,"refTime":"2025-09-12T09:00:00:Z","depth":0,"parameterNumber":3,"parameterNumberName":"V-component_of_WINDS"},"data":[0,0,0,0,0,0,0,0,0,0,0,0,0,0,0,0,0,0,0,0,0,0,0,0,0,0,0,0,0,0,0,0,0,0,0,0,0,0,0,0,0,0,0,0,0,0,0,0,0,0,0,0,0,0,0,0,0,0,0.5021,0.5021,0,0.5038,0.5038,0.5038,0.5054,0.5055,0.5055,0.5055,0.5071,0.5071,0.5071,0,0,0,0,0,0,0,0,0,0,0,0,0,0.4999,0.5,0.5021,0.5021,0.5021,0.5038,0.5038,0.5038,0.5054,0.5055,0.5055,0.5055,0.5071,0.5071,0.5071,0,0,0,0,0,0,0,0,0,0,0,0,0,0.5012,0.5,0.5021,0.5031,0.5032,0.5038,0.5038,0.5039,0.5054,0.5055,0.5055,0.5055,0.5071,0.5071,0.5071,0.5067,0,0,0.5072,0.5073,0,0,0,0,0,0,0,0,0.5011,0.5013,0.503,0.5031,0.5032,0.5044,0.5037,0.5048,0.5054,0.5046,0.5055,0.5055,0.5062,0.5063,0.5065,0.5068,0.5069,0.5072,0.5073,0.5073,0.5073,0,0,0,0,0,0,0,0.501,0.5012,0.5028,0.503,0.5031,0.5034,0.5036,0.5039,0.5052,0.5047,0.5048,0.505,0.5062,0.5065,0.5066,0.5069,0.5072,0.5073,0.5073,0.5073,0.5068,0.5068,0,0,0,0,0,0,0.5008,0.5011,0.5027,0.5028,0.5022,0.5034,0.5037,0.504,0.5052,0.5054,0.505,0.505,0.5064,0.5065,0.5066,0.5062,0.5073,0.5073,0.5073,0.5068,0.5068,0.5068,0,0,0,0,0,0,0.5007,0.5009,0.5026,0.502,0.5022,0.5035,0.5038,0.504,0.5043,0.5054,0.5056,0.505,0.5064,0.5066,0.5067,0.5062,0.5073,0.5074,0.5069,0.5068,0.5068,0.5052,0,0,0,0,0,0,0.5007,0.5009,0.5008,0.502,0.5023,0.5027,0.5038,0.504,0.5044,0.5045,0.5055,0.5057,0.5065,0.5066,0.5067,0.5063,0.5074,0.5069,0.5069,0.5068,0.5053,0.5051,0.505,0,0,0,0,0,0.5006,0.5003,0.5008,0.501,0.5022,0.5027,0.5029,0.5038,0.5043,0.5042,0.5049,0.5057,0.5063,0.5066,0.5067,0.5063,0.5069,0.5069,0.5068,0.5054,0.5052,0.505,0,0,0,0,0,0,0.4991,0.5005,0.5011,0.5012,0.5018,0.503,0.5029,0.5036,0.504,0.5041,0.5053,0.5055,0.5054,0.5059,0.5062,0.5059,0.5067,0.5066,0.5056,0.5054,0.5052,0.5051,0.5074,0,0,0,0,0,0.4987,0.4991,0.5003,0.5003,0.5006,0.5017,0.5019,0.5026,0.5033,0.5035,0.5042,0.5048,0.5051,0.5053,0.5057,0.5054,0.5056,0.5052,0.505,0.5048,0.5048,0.5045,0.5043,0.5065,0.5065,0.5065,0,0,0.4981,0.4989,0.4991,0.5,0.5006,0.5008,0.5019,0.5021,0.5022,0.5035,0.5037,0.5042,0.5049,0.5048,0.5048,0.5052,0.5042,0.5047,0.5046,0.5046,0.5044,0.5042,0.504,0.5064,0.5065,0.5065,0,0,0.497,0.4977,0.4977,0.4982,0.4991,0.4998,0.4998,0.5008,0.5012,0.5013,0.5023,0.5024,0.503,0.5034,0.5037,0.5026,0.5032,0.5027,0.5017,0.5015,0.5013,0.5011,0.5006,0.5004,0.5026,0.5026,0.5026,0,0.496,0.4965,0.4976,0.4977,0.498,0.4992,0.4992,0.4996,0.5005,0.5007,0.5011,0.5018,0.5023,0.5022,0.502,0.5022,0.5021,0.5025,0.5012,0.5011,0.501,0.5005,0.5003,0.5025,0.5025,0.5025,0.5025,0,0.4952,0.4955,0.4954,0.4962,0.4965,0.4966,0.4975,0.4977,0.4983,0.499,0.499,0.4997,0.5002,0.5002,0.5009,0.5002,0.5004,0.501,0.5018,0.5006,0.5002,0.5,0.5024,0.5024,0.5025,0.5025,0,0,0.4932,0.4946,0.4945,0.4948,0.4958,0.496,0.496,0.4965,0.4966,0.4971,0.4971,0.4975,0.498,0.4983,0.499,0.4988,0.4977,0.4994,0.4995,0.499,0.4968,0.4963,0.4961,0.4982,0.4981,0.4981,0.4967,0,0.4922,0.4924,0.4933,0.4931,0.4933,0.4944,0.4944,0.4949,0.4955,0.4957,0.4963,0.4965,0.4973,0.4974,0.4973,0.4979,0.4973,0.498,0.498,0.498,0.4977,0.4958,0.4953,0.4939,0.4966,0.4966,0.4965,0,0.491,0.4915,0.4914,0.4922,0.4923,0.4923,0.4927,0.4929,0.4935,0.4939,0.4942,0.4949,0.4949,0.4957,0.4956,0.496,0.4961,0.4964,0.4963,0.4963,0.4971,0.4956,0.4936,0.4933,0.4963,0.4963,0.4963,0,0.4894,0.49,0.49,0.4903,0.4913,0.4912,0.4916,0.4922,0.4924,0.4927,0.4928,0.4932,0.4933,0.4935,0.4943,0.4948,0.494,0.4949,0.4942,0.4942,0.4939,0.4939,0.4917,0.4942,0.4942,0.4942,0.4942,0,0.4881,0.488,0.4893,0.4892,0.489,0.4901,0.4898,0.4903,0.4908,0.4908,0.4918,0.4917,0.4928,0.4928,0.4934,0.4931,0.4932,0.4935,0.4936,0.4933,0.4933,0.4933,0.4934,0.4941,0.4941,0.4941,0.4941,0,0.4863,0.4872,0.4872,0.4881,0.4883,0.4881,0.4889,0.4888,0.4894,0.4894,0.4894,0.4903,0.4904,0.4912,0.4915,0.4919,0.4913,0.4917,0.4911,0.4912,0.4904,0.4904,0.488,0.4877,0.4905,0.4904,0.4904,0,0.4854,0.4853,0.4862,0.4863,0.4866,0.4868,0.4869,0.4879,0.488,0.4885,0.4884,0.4885,0.4887,0.4888,0.4894,0.4895,0.4898,0.489,0.4899,0.4895,0.4897,0.4896,0.4895,0.4888,0.4888,0.4887,0.4887,0,0.4836,0.484,0.4843,0.4846,0.4848,0.4851,0.4854,0.4854,0.4864,0.4865,0.4866,0.4867,0.487,0.487,0.4873,0.4876,0.4883,0.4884,0.4883,0.4879,0.4875,0.4876,0.4905,0.4885,0.4885,0.4885,0.4885,0.4885,0.4822,0.482,0.4826,0.4828,0.4831,0.4834,0.4834,0.4839,0.484,0.4843,0.4848,0.4848,0.4852,0.4856,0.4859,0.4858,0.4862,0.486,0.4859,0.4858,0.4856,0.4876,0.4859,0.4859,0.4859,0.4859,0.4859,0,0.4803,0.4807,0.4809,0.4813,0.4814,0.4821,0.4824,0.4824,0.4824,0.4828,0.4829,0.4829,0.483,0.4836,0.4837,0.4835,0.4837,0.4834,0.4834,0.4834,0.4853,0.4854,0.4832,0.4832,0.4832,0.4832,0.4832,0.4832,0.4794,0.4792,0.4796,0.4795,0.4799,0.4799,0.4801,0.4803,0.4805,0.4805,0.4806,0.481,0.4813,0.4815,0.4815,0.4816,0.4816,0.4811,0.4813,0.4831,0.4833,0.4836,0.4836,0.4811,0.4811,0.4795,0.4795,0.4794]}]]